User: anonymous   Login
Location: Girdwood
(60.9430°N, 149.1660°W)
Time: 21:20:44
(UTC-08:00)
Language:

Iridium 86 - Orbit

View from above orbital plane
View from above orbital plane
View from above satellite
View from above satellite

Ground track
Ground track

The orbit data is extracted from the following two-line orbital elements,

1 25528U 98066B   18174.49095201 -.00000032 +00000-0 -18576-4 0  9990
2 25528 086.3967 194.5570 0002013 110.1498 249.9914 14.34219722032350
Epoch (UTC): 23 June 2018 11:46:58
Eccentricity: 0.0002013
inclination: 86.3967°
perigee height: 776 km
apogee height: 779 km
right ascension of ascending node: 194.5570°
argument of perigee: 110.1498°
revolutions per day: 14.34219722
mean anomaly at epoch: 249.9914°
orbit number at epoch: 3235

The dashed part of the orbit path shows where the satellite is in the earth's shadow,  

DLR